TITAN 3C TRANSTAGE DEB, 3462

Orbit data source: Space-Track

TITAN 3C TRANSTAGE DEB, 3462 is space debris in LEO originally from a launch on Fri, 15 Oct 1965 UTC launched from the Air Force Eastern Test Range (AFETR). Debris objects in space refer to the collection of defunct objects orbiting the Earth. Examples of debris include non-operational satellites, rocket bodies, and fragments generated from explosions, collisions, or faulty payload assembly.

Not visible in the next 10 days
Identifier
3462, 1965-082PT
Orbit
LEO
Country
Flag of USUS
Related business
Manufacturer
Unknown
Mission
Spacecraft
Bus & Motor
Unknown
Mass
Unknown
Launch date (UTC)
1965-10-15 (60 years ago)
Launch vehicle
Unknown
Launch site
Air Force Eastern Test Range (AFETR)
Object type
Payload
Rocket body
Debris
Shape & HBR
Unknown shape, 0.1 m
Radar Cross Section
Small (<0.1 m²)

Expand to show TLE details & history
Last TLE update: 17 hours ago

TLE from 17 hours ago
0 TITAN 3C TRANSTAGE DEB
1 03462U 65082PT  26095.05929694  .00012982  00000-0  43722-3 0  9995
2 03462  32.0327  80.9377 0009918  81.4981 278.6805 15.29551490252305
Epoch: 2026-04-05T01:25Z
TLE epoch observation values (Epoch: 2026-04-05T01:25:23.255Z)
Latitude
-0.00004°
Longitude
-133.77942°
Altitude
474.732 km
Speed
7.632 km/s
True Right ascension
05h 23m 45s
True Declination
0° 00' 00"
Sunlit
Object was in daylight at epoch
Visualization orbit readout
Latitude
Unknown
Longitude
Unknown
Altitude
Unknown
Speed
Unknown
Apparent Right ascension
Unknown
Apparent Declination
Unknown
Sunlit
N/A
Visualization observer readout
Local Sidereal Time
00:26:37
Azimuth
Unknown
Elevation
Unknown
Doppler factor
Unknown
Orbital elements
Apogee altitude
487.674 km
Perigee altitude
474.068 km
Semi-major axis
6,859.008 km
Eccentricity
0.00099
Inclination
32.0327°
RAAN
80.9377°
Arg. of periapsis
81.4981°
True anomaly
278.56813°
Mean anomaly
278.6805°
Eccentric anomaly
278.62432°
Mean motion
3.82077 °/min
Orbital period
94.22 mins
BSTAR
0.00043722

Documentation

Showing up to 5 results
|